Weather History for Ellsworth AFB, SD

Change the Weather History Date:

Sunday, March 3, 2013

  Actual Average Record
Temperature  
Mean Temperature 45 °F -  
Max Temperature 57 °F 33 °F 63 °F (2009)
Min Temperature 33 °F 15 °F -4 °F (2002)
Degree Days  
Heating Degree Days 20    
Moisture  
Dew Point 29 °F    
Average Humidity 60    
Maximum Humidity 87    
Minimum Humidity 33    
Precipitation  
Precipitation 0.01 in - - ()
Sea Level Pressure  
Sea Level Pressure 29.64 in    
Wind  
Wind Speed 15 mph (NNW)    
Max Wind Speed 50 mph    
Max Gust Speed 66 mph    
Visibility 10 miles    
Events Rain , Snow    
Averages and records for this station are not official NWS values.
T = Trace of Precipitation, MM = Missing Value Source: NWS Daily Summary

Daily Weather History Graph

Daily Weather History Graph

Search for Another Location

Airport:

Trip Planner

Search our weather history database for the weather conditions in past years. The results will help you decide how hot, cold, wet, or windy it might be!

Date:

Astronomy

Mar. 03, 2013 Rise Set
Actual Time 6:25 AM MST 5:43 PM MST
Civil Twilight 5:56 AM MST 6:12 PM MST
Nautical Twilight 5:23 AM MST 6:46 PM MST
Astronomical Twilight 4:49 AM MST 7:19 PM MST
Moon No Moon Rise 9:28 AM MST (3/3)
Length of Visible Light 12h 16m
Length of Day
11h 18m
Waning Gibbous, 63% of the Moon is Illuminated
Mar 3
Waning Gibbous
Mar 4
Last Quarter
Mar 11
New
Mar 19
First Quarter
Mar 27
Full

Hourly Weather History & Observations

Time (MST) Temp. Windchill Dew Point Humidity Pressure Visibility Wind Dir Wind Speed Gust Speed Precip Events Conditions
12:55 AM 44.1 °F - 26.1 °F 49% 29.84 in 10.0 mi Calm Calm - N/A   Scattered Clouds
1:55 AM 43.2 °F - 25.9 °F 51% 29.82 in 10.0 mi Calm Calm - N/A   Mostly Cloudy
2:55 AM 42.8 °F 41.1 °F 27.5 °F 55% 29.78 in 10.0 mi West 3.5 mph - N/A   Overcast
3:55 AM 46.4 °F - 26.6 °F 46% 29.74 in 10.0 mi Calm Calm - N/A   Overcast
4:55 AM 42.4 °F 37.0 °F 26.6 °F 54% 29.73 in 10.0 mi NW 9.2 mph - N/A   Overcast
5:55 AM 41.2 °F 38.2 °F 27.0 °F 57% 29.73 in 10.0 mi NNE 4.6 mph - N/A   Partly Cloudy
6:55 AM 39.4 °F - 26.4 °F 60% 29.74 in 10.0 mi Calm Calm - N/A   Partly Cloudy
7:55 AM 43.9 °F 38.3 °F 27.0 °F 51% 29.73 in 10.0 mi North 10.4 mph - N/A   Scattered Clouds
8:55 AM 43.0 °F 35.7 °F 27.5 °F 54% 29.72 in 10.0 mi NNW 15.0 mph - N/A   Partly Cloudy
9:55 AM 49.1 °F - 27.7 °F 44% 29.68 in 10.0 mi North 16.1 mph - N/A   Clear
10:55 AM 51.8 °F - 27.9 °F 40% 29.65 in 10.0 mi North 15.0 mph - N/A   Mostly Cloudy
11:55 AM 52.7 °F - 29.3 °F 41% 29.62 in 10.0 mi NNE 12.7 mph - N/A   Partly Cloudy
12:55 PM 54.7 °F - 28.9 °F 37% 29.58 in 10.0 mi NNE 10.4 mph - N/A   Partly Cloudy
1:55 PM 57.9 °F - 28.6 °F 33% 29.54 in 10.0 mi Variable 6.9 mph - N/A   Clear
2:55 PM 56.5 °F - 29.5 °F 36% 29.52 in 10.0 mi ENE 9.2 mph - N/A   Partly Cloudy
3:55 PM 57.2 °F - 30.0 °F 36% 29.52 in 10.0 mi ESE 4.6 mph - N/A   Clear
4:55 PM 55.9 °F - 29.7 °F 37% 29.52 in 10.0 mi East 5.8 mph - N/A   Scattered Clouds
5:55 PM 51.3 °F - 29.1 °F 43% 29.52 in 10.0 mi East 4.6 mph - N/A   Partly Cloudy
6:55 PM 46.2 °F 44.1 °F 28.6 °F 50% 29.53 in 10.0 mi SSE 4.6 mph - N/A   Clear
7:55 PM 41.7 °F 38.0 °F 28.8 °F 60% 29.53 in 10.0 mi SSE 5.8 mph - N/A   Mostly Cloudy
8:41 PM 41.0 °F 28.8 °F 30.2 °F 65% 29.60 in 10.0 mi NW 36.8 mph - N/A   Squalls
8:42 PM 41.0 °F 28.6 °F 30.2 °F 65% 29.61 in 10.0 mi NW 38.0 mph 51.8 mph N/A   Squalls
8:45 PM 41.0 °F 27.2 °F 30.2 °F 65% 29.58 in 10.0 mi NW 49.5 mph 65.6 mph N/A   Scattered Clouds
8:46 PM 41.0 °F 27.3 °F 30.2 °F 65% 29.62 in 10.0 mi NNW 48.3 mph 65.6 mph N/A   Squalls
8:55 PM 39.2 °F 25.7 °F 29.1 °F 67% 29.61 in 10.0 mi NW 41.4 mph 65.6 mph 0.01 in   Light Drizzle
8:56 PM 39.2 °F 25.4 °F 28.4 °F 65% 29.60 in 10.0 mi NW 43.7 mph 51.8 mph N/A   Light Drizzle
9:25 PM 35.6 °F 20.1 °F 30.2 °F 81% 29.62 in 9.0 mi NW 44.9 mph 50.6 mph N/A Snow Light Snow
9:37 PM 35.6 °F 20.8 °F 30.2 °F 81% 29.65 in 10.0 mi NNW 40.3 mph 51.8 mph N/A Rain Light Rain
9:42 PM 35.6 °F 21.3 °F 30.2 °F 81% 29.65 in 10.0 mi NNW 36.8 mph 49.5 mph N/A Rain Light Rain
9:47 PM 35.6 °F 21.5 °F 30.2 °F 81% 29.66 in 10.0 mi NNW 35.7 mph 49.5 mph N/A Rain Light Rain
9:52 PM 35.6 °F 21.0 °F 30.2 °F 81% 29.65 in 10.0 mi NNW 39.1 mph 49.5 mph N/A   Overcast
9:55 PM 35.1 °F 20.8 °F 29.5 °F 80% 29.65 in 10.0 mi NNW 35.7 mph 47.2 mph 0.00 in   Overcast
9:59 PM 35.6 °F 20.8 °F 30.2 °F 81% 29.63 in 10.0 mi NNW 40.3 mph 48.3 mph N/A Rain Light Rain
10:10 PM 33.8 °F 19.0 °F 30.2 °F 87% 29.65 in 10.0 mi NNW 35.7 mph 47.2 mph N/A   Light Drizzle
10:14 PM 33.8 °F 19.0 °F 30.2 °F 87% 29.65 in 10.0 mi NNW 35.7 mph 44.9 mph N/A Rain Light Rain
10:25 PM 33.8 °F 18.8 °F 28.4 °F 81% 29.65 in 10.0 mi NNW 36.8 mph 46.0 mph N/A   Mostly Cloudy
10:55 PM 33.1 °F 19.1 °F 27.5 °F 80% 29.67 in 10.0 mi NNW 29.9 mph 42.6 mph 0.00 in   Partly Cloudy
11:55 PM 33.3 °F 18.3 °F 23.2 °F 67% 29.68 in 10.0 mi NNW 35.7 mph 44.9 mph N/A   Clear